EN

Hourly Weather Alleppey

Today, 3 December, Thursday

Time Temperature Precipitation Wind Pressure Humidity
00:00 +26°C° 0 mm 1 mps 756 mmHg 79%
01:00 +26°C° 0 mm 1 mps 756 mmHg 79%
02:00 +26°C° 0 mm 2 mps 756 mmHg 80%
03:00 +26°C° 0 mm 2 mps 756 mmHg 82%
04:00 +25°C° 0 mm 2 mps 756 mmHg 84%
05:00 +26°C° 0 mm 1 mps 756 mmHg 81%
06:00 +25°C° 0.1 mm 2 mps 756 mmHg 84%
07:00 +25°C° 0.1 mm 2 mps 757 mmHg 87%
08:00 +25°C° 0.1 mm 3 mps 757 mmHg 89%
09:00 +25°C° 0 mm 3 mps 757 mmHg 88%
10:00 +25°C° 0 mm 4 mps 757 mmHg 87%
11:00 +26°C° 0 mm 4 mps 757 mmHg 86%
12:00 +26°C° 0 mm 4 mps 757 mmHg 86%
13:00 +26°C° 0 mm 4 mps 756 mmHg 86%
14:00 +25°C° 0 mm 4 mps 755 mmHg 85%
15:00 +26°C° 0 mm 4 mps 755 mmHg 83%
16:00 +26°C° 0 mm 4 mps 755 mmHg 82%
17:00 +27°C° 0 mm 4 mps 755 mmHg 80%
18:00 +26°C° 0 mm 4 mps 756 mmHg 82%
19:00 +26°C° 0 mm 4 mps 756 mmHg 84%
20:00 +25°C° 0 mm 4 mps 756 mmHg 86%
21:00 +25°C° 0 mm 4 mps 756 mmHg 87%
22:00 +25°C° 0 mm 4 mps 756 mmHg 87%
23:00 +25°C° 0 mm 4 mps 756 mmHg 88%

Tomorrow, 4 December, Friday

Time Temperature Precipitation Wind Pressure Humidity
00:00 +25°C° 0 mm 4 mps 756 mmHg 89%
01:00 +25°C° 0 mm 4 mps 755 mmHg 89%
02:00 +25°C° 0 mm 4 mps 755 mmHg 90%
03:00 +25°C° 0 mm 3 mps 755 mmHg 90%
04:00 +25°C° 0 mm 3 mps 755 mmHg 90%
05:00 +25°C° 0 mm 3 mps 755 mmHg 90%
06:00 +25°C° 0 mm 3 mps 755 mmHg 89%
07:00 +25°C° 0 mm 2 mps 756 mmHg 88%
08:00 +25°C° 0 mm 2 mps 756 mmHg 87%
09:00 +26°C° 0 mm 2 mps 756 mmHg 85%
10:00 +27°C° 0 mm 2 mps 756 mmHg 83%
11:00 +27°C° 0 mm 1 mps 756 mmHg 81%
12:00 +27°C° 0.1 mm 1 mps 755 mmHg 81%
13:00 +27°C° 0.1 mm 1 mps 755 mmHg 81%
14:00 +28°C° 0.1 mm 1 mps 754 mmHg 82%
15:00 +27°C° 0 mm 1 mps 754 mmHg 84%
16:00 +27°C° 0 mm 1 mps 754 mmHg 85%
17:00 +26°C° 0 mm 1 mps 754 mmHg 87%
18:00 +26°C° 0 mm 1 mps 754 mmHg 88%
19:00 +26°C° 0 mm 1 mps 755 mmHg 88%
20:00 +25°C° 0 mm 1 mps 755 mmHg 88%
21:00 +25°C° 0 mm 1 mps 755 mmHg 89%
22:00 +25°C° 0 mm 1 mps 755 mmHg 90%
23:00 +25°C° 0 mm 2 mps 755 mmHg 91%

Day after tomorrow, 5 December, Saturday

Time Temperature Precipitation Wind Pressure Humidity
00:00 +25°C° 0 mm 2 mps 755 mmHg 91%
01:00 +25°C° 0 mm 2 mps 754 mmHg 91%
02:00 +25°C° 0 mm 2 mps 754 mmHg 91%
03:00 +25°C° 0 mm 2 mps 754 mmHg 91%
04:00 +25°C° 0 mm 2 mps 754 mmHg 91%
05:00 +24°C° 0 mm 1 mps 754 mmHg 91%
06:00 +25°C° 0.2 mm 2 mps 755 mmHg 89%
07:00 +26°C° 0.2 mm 2 mps 756 mmHg 88%
08:00 +26°C° 0.2 mm 2 mps 756 mmHg 86%
09:00 +28°C° 0.1 mm 2 mps 756 mmHg 80%
10:00 +29°C° 0.1 mm 2 mps 756 mmHg 75%
11:00 +31°C° 0.1 mm 2 mps 756 mmHg 69%
12:00 +31°C° 0.1 mm 2 mps 755 mmHg 69%
13:00 +31°C° 0.1 mm 2 mps 754 mmHg 68%
14:00 +31°C° 0.1 mm 2 mps 754 mmHg 67%
15:00 +31°C° 0 mm 2 mps 754 mmHg 70%
16:00 +30°C° 0 mm 2 mps 754 mmHg 73%
17:00 +30°C° 0 mm 3 mps 754 mmHg 76%
18:00 +29°C° 0.5 mm 3 mps 755 mmHg 80%
19:00 +28°C° 0.5 mm 3 mps 755 mmHg 84%
20:00 +27°C° 0.5 mm 3 mps 756 mmHg 88%
21:00 +26°C° 0.3 mm 4 mps 756 mmHg 89%
22:00 +26°C° 0.3 mm 4 mps 756 mmHg 91%
23:00 +26°C° 0.3 mm 5 mps 756 mmHg 92%

6 December, Sunday

Time Temperature Precipitation Wind Pressure Humidity
00:00 +26°C° 0 mm 4 mps 756 mmHg 92%
01:00 +25°C° 0 mm 4 mps 755 mmHg 92%
02:00 +25°C° 0 mm 4 mps 755 mmHg 92%
03:00 +25°C° 0 mm 3 mps 755 mmHg 92%
04:00 +25°C° 0 mm 3 mps 755 mmHg 92%
05:00 +25°C° 0 mm 2 mps 756 mmHg 91%
06:00 +26°C° 0 mm 2 mps 756 mmHg 86%
07:00 +27°C° 0 mm 2 mps 757 mmHg 80%
08:00 +29°C° 0 mm 2 mps 758 mmHg 75%
09:00 +31°C° 0 mm 1 mps 758 mmHg 66%
10:00 +34°C° 0 mm 1 mps 758 mmHg 58%
11:00 +34°C° 0 mm 0 mps 757 mmHg 49%
12:00 +36°C° 0 mm 2 mps 757 mmHg 52%
13:00 +35°C° 0 mm 3 mps 756 mmHg 56%
14:00 +34°C° 0 mm 4 mps 755 mmHg 59%
15:00 +33°C° 0.4 mm 3 mps 755 mmHg 67%
16:00 +30°C° 0.4 mm 3 mps 755 mmHg 74%
17:00 +29°C° 0.4 mm 3 mps 756 mmHg 82%
18:00 +28°C° 2.3 mm 3 mps 756 mmHg 84%
19:00 +28°C° 2.3 mm 3 mps 757 mmHg 87%
20:00 +27°C° 2.3 mm 2 mps 757 mmHg 89%
21:00 +27°C° 1.6 mm 2 mps 758 mmHg 90%
22:00 +27°C° 1.6 mm 2 mps 758 mmHg 92%
23:00 +27°C° 1.6 mm 1 mps 758 mmHg 93%

7 December, Monday

Time Temperature Precipitation Wind Pressure Humidity
00:00 +26°C° 1.5 mm 1 mps 757 mmHg 93%
01:00 +26°C° 1.5 mm 1 mps 757 mmHg 94%
02:00 +26°C° 1.5 mm 1 mps 757 mmHg 94%
03:00 +26°C° 1 mm 2 mps 757 mmHg 94%
04:00 +25°C° 1 mm 2 mps 757 mmHg 94%
05:00 +25°C° 1 mm 3 mps 757 mmHg 95%
06:00 +26°C° 0.7 mm 3 mps 758 mmHg 91%
07:00 +27°C° 0.7 mm 2 mps 758 mmHg 88%
08:00 +28°C° 0.7 mm 2 mps 759 mmHg 84%
09:00 +30°C° 0.1 mm 2 mps 759 mmHg 74%
10:00 +32°C° 0.1 mm 2 mps 759 mmHg 64%
11:00 +34°C° 0.1 mm 1 mps 758 mmHg 54%
12:00 +35°C° 0 mm 2 mps 758 mmHg 55%
13:00 +35°C° 0 mm 2 mps 757 mmHg 56%
14:00 +35°C° 0 mm 3 mps 756 mmHg 57%
15:00 +33°C° 0.2 mm 3 mps 756 mmHg 64%
16:00 +31°C° 0.2 mm 3 mps 756 mmHg 72%
17:00 +29°C° 0.2 mm 2 mps 756 mmHg 80%
18:00 +28°C° 1.8 mm 2 mps 757 mmHg 85%
19:00 +27°C° 1.8 mm 2 mps 758 mmHg 90%
20:00 +26°C° 1.8 mm 2 mps 759 mmHg 95%
21:00 +26°C° 0.8 mm 2 mps 759 mmHg 95%
22:00 +26°C° 0.8 mm 2 mps 759 mmHg 95%
23:00 +26°C° 0.8 mm 2 mps 759 mmHg 95%

8 December, Tuesday

Time Temperature Precipitation Wind Pressure Humidity
00:00 +26°C° 1.8 mm 2 mps 758 mmHg 96%
01:00 +26°C° 1.8 mm 3 mps 758 mmHg 96%
02:00 +26°C° 1.8 mm 3 mps 757 mmHg 97%
03:00 +26°C° 0.1 mm 2 mps 757 mmHg 97%
04:00 +25°C° 0.1 mm 2 mps 757 mmHg 96%
05:00 +25°C° 0.1 mm 2 mps 757 mmHg 96%
06:00 +26°C° 0 mm 2 mps 758 mmHg 93%
07:00 +27°C° 0 mm 2 mps 758 mmHg 90%
08:00 +28°C° 0 mm 1 mps 759 mmHg 86%
09:00 +30°C° 0 mm 1 mps 759 mmHg 75%
10:00 +32°C° 0 mm 1 mps 759 mmHg 64%
11:00 +35°C° 0 mm 1 mps 758 mmHg 53%
12:00 +35°C° 0 mm 2 mps 758 mmHg 55%
13:00 +35°C° 0 mm 3 mps 757 mmHg 57%
14:00 +34°C° 0 mm 4 mps 756 mmHg 60%
15:00 +33°C° 0.4 mm 4 mps 756 mmHg 68%
16:00 +30°C° 0.4 mm 4 mps 756 mmHg 76%
17:00 +29°C° 0.4 mm 3 mps 757 mmHg 84%
18:00 +28°C° 0.6 mm 3 mps 757 mmHg 86%
19:00 +28°C° 0.6 mm 2 mps 758 mmHg 87%
20:00 +27°C° 0.6 mm 2 mps 759 mmHg 88%
21:00 +27°C° 0 mm 1 mps 759 mmHg 89%
22:00 +26°C° 0 mm 1 mps 759 mmHg 91%
23:00 +26°C° 0 mm 1 mps 759 mmHg 92%
Show more

We Need Your Consent

Meteoprog and our Service Providers may store and access personal data such as cookies, device identifiers or other similar technologies on your device and process such data to personalise content and ads, as well as provide social media features and to analyse the traffic.

  • Store and/or access information on your device

    Cookies, device identifiers or other information can be stored or accessed on your device for the purposes indicated above.

  • Personalised ads and content, ad and content measurement, audience insights, and products development

    Ads and content can be personalised based on a profile. More data can be added to better personalise ads and content. Ad and content performance can be measured. Insights about the audience who saw the ads and content can be derived. Such data can be used to develop or improve user’s experience, systems and software.

By clicking ‘I Agree’ you will allow the use of indicated cookies, device identifiers, web beacons or other similar technologies. Your settings can be changed in the browser on your device.

For certain purposes, legitimate interests may be relied on, rather than consent. You can read more about this in our Privacy and Cookie Policy.